User: anonymous   Login
Location: Altenst�hlen
(53.5567°N, 8.9425°E)
Time: 23:37:04
(UTC+00:00)
Language:

STARLINK-72 - Orbit

View from above orbital plane
View from above orbital plane
View from above satellite
View from above satellite

Ground track
Ground track

The orbit data is extracted from the following two-line orbital elements,

1 44263U 19029AE  19343.91667824  .00500456  00000-0  27153-1 0  9992
2 44263  53.0024 354.6733 0001138 121.4897 255.5376 15.12005063 30257
Epoch (UTC): 09 December 2019 22:00:01
Eccentricity: 0.0001138
inclination: 53.0024°
perigee height: 529 km
apogee height: 531 km
right ascension of ascending node: 354.6733°
argument of perigee: 121.4897°
revolutions per day: 15.12005063
mean anomaly at epoch: 255.5376°
orbit number at epoch: 3025

The dashed part of the orbit path shows where the satellite is in the earth's shadow,  

DLR